contact:dominique.lefevre@mio.osupytheas.fr, maurice.libes@osupytheas.fr, didier.mallarino@osupytheas.fr
Project:EMSO http://www.emso-fr.org/EMSO-France
Depth: 2436.0 m
Title:EMSO Ligure Ouest : Data MII capteur MICROCAT
DateTime_Computer,Latitude,Longitude,Temperature,Conductivity,Pressure,DateTime_Instrument
DateTime_Computer,Latitude,Longitude,degC,S m-1,dbar,DateTime_Instrument
2020-07-28T00:00:58Z,42.805,6.029,13.2970,4.59975,2470.18,2020-7-28T02:01:46Z
2020-07-28T00:04:02Z,42.805,6.029,13.2970,4.59977,2470.217,2020-7-28T02:04:49Z
2020-07-28T00:07:05Z,42.805,6.029,13.2972,4.59976,2470.18,2020-7-28T02:07:53Z
2020-07-28T00:10:08Z,42.805,6.029,13.2972,4.59975,2470.227,2020-7-28T02:10:56Z
2020-07-28T00:13:11Z,42.805,6.029,13.2969,4.59978,2470.24,2020-7-28T02:13:59Z
2020-07-28T00:16:15Z,42.805,6.029,13.2973,4.59976,2470.18,2020-7-28T02:17:02Z
2020-07-28T00:19:18Z,42.805,6.029,13.2970,4.59975,2470.217,2020-7-28T02:20:06Z
2020-07-28T00:22:21Z,42.805,6.029,13.2968,4.59975,2470.18,2020-7-28T02:23:09Z
2020-07-28T00:25:24Z,42.805,6.029,13.2971,4.59975,2470.18,2020-7-28T02:26:12Z
2020-07-28T00:28:28Z,42.805,6.029,13.2968,4.59975,2470.194,2020-7-28T02:29:15Z
2020-07-28T00:31:31Z,42.805,6.029,13.2974,4.59976,2470.203,2020-7-28T02:32:19Z
2020-07-28T00:34:34Z,42.805,6.029,13.2971,4.59975,2470.203,2020-7-28T02:35:22Z
2020-07-28T00:37:37Z,42.805,6.029,13.2969,4.59973,2470.18,2020-7-28T02:38:25Z
2020-07-28T00:40:40Z,42.805,6.029,13.2975,4.59976,2470.156,2020-7-28T02:41:28Z
2020-07-28T00:43:44Z,42.805,6.029,13.2973,4.59974,2470.18,2020-7-28T02:44:31Z
2020-07-28T00:46:47Z,42.805,6.029,13.2971,4.59974,2470.18,2020-7-28T02:47:35Z
2020-07-28T00:49:50Z,42.805,6.029,13.2972,4.59975,2470.18,2020-7-28T02:50:38Z
2020-07-28T00:52:53Z,42.805,6.029,13.2970,4.59975,2470.156,2020-7-28T02:53:41Z
2020-07-28T00:55:57Z,42.805,6.029,13.2970,4.59973,2470.203,2020-7-28T02:56:45Z
2020-07-28T00:59:00Z,42.805,6.029,13.2971,4.59975,2470.203,2020-7-28T02:59:48Z
2020-07-28T01:02:03Z,42.805,6.029,13.2967,4.59974,2470.171,2020-7-28T03:02:51Z
2020-07-28T01:05:07Z,42.805,6.029,13.2971,4.59976,2470.18,2020-7-28T03:05:54Z
2020-07-28T01:08:10Z,42.805,6.029,13.2971,4.59975,2470.203,2020-7-28T03:08:58Z
2020-07-28T01:11:13Z,42.805,6.029,13.2974,4.59973,2470.18,2020-7-28T03:12:01Z
2020-07-28T01:14:16Z,42.805,6.029,13.2974,4.59973,2470.143,2020-7-28T03:15:04Z
2020-07-28T01:17:20Z,42.805,6.029,13.2970,4.59973,2470.18,2020-7-28T03:18:07Z
2020-07-28T01:20:23Z,42.805,6.029,13.2972,4.59974,2470.18,2020-7-28T03:21:11Z
2020-07-28T01:23:26Z,42.805,6.029,13.2973,4.59974,2470.227,2020-7-28T03:24:14Z
2020-07-28T01:26:29Z,42.805,6.029,13.2974,4.59973,2470.203,2020-7-28T03:27:17Z
2020-07-28T01:29:32Z,42.805,6.029,13.2972,4.59976,2470.194,2020-7-28T03:30:20Z
2020-07-28T01:32:36Z,42.805,6.029,13.2973,4.59975,2470.171,2020-7-28T03:33:23Z
2020-07-28T01:35:39Z,42.805,6.029,13.2971,4.59975,2470.217,2020-7-28T03:36:27Z
2020-07-28T01:38:42Z,42.805,6.029,13.2974,4.59973,2470.18,2020-7-28T03:39:30Z
2020-07-28T01:41:45Z,42.805,6.029,13.2971,4.59974,2470.18,2020-7-28T03:42:33Z
2020-07-28T01:44:49Z,42.805,6.029,13.2974,4.59974,2470.194,2020-7-28T03:45:36Z
2020-07-28T01:47:52Z,42.805,6.029,13.2971,4.59976,2470.18,2020-7-28T03:48:39Z
2020-07-28T01:50:55Z,42.805,6.029,13.2973,4.59972,2470.203,2020-7-28T03:51:43Z
2020-07-28T01:53:58Z,42.805,6.029,13.2968,4.59972,2470.18,2020-7-28T03:54:46Z
2020-07-28T01:57:01Z,42.805,6.029,13.2975,4.59973,2470.18,2020-7-28T03:57:49Z
2020-07-28T02:00:05Z,42.805,6.029,13.2973,4.59973,2470.194,2020-7-28T04:00:52Z
2020-07-28T02:03:08Z,42.805,6.029,13.2971,4.59973,2470.156,2020-7-28T04:03:56Z
2020-07-28T02:06:11Z,42.805,6.029,13.2968,4.59973,2470.18,2020-7-28T04:06:59Z
2020-07-28T02:09:14Z,42.805,6.029,13.2970,4.59978,2470.18,2020-7-28T04:10:02Z
2020-07-28T02:12:18Z,42.805,6.029,13.2973,4.59973,2470.156,2020-7-28T04:13:05Z
2020-07-28T02:15:21Z,42.805,6.029,13.2969,4.59972,2470.18,2020-7-28T04:16:09Z
2020-07-28T02:18:24Z,42.805,6.029,13.2972,4.59975,2470.18,2020-7-28T04:19:12Z
2020-07-28T02:21:27Z,42.805,6.029,13.2970,4.59973,2470.156,2020-7-28T04:22:15Z
2020-07-28T02:24:31Z,42.805,6.029,13.2971,4.59973,2470.18,2020-7-28T04:25:18Z
2020-07-28T02:27:34Z,42.805,6.029,13.2969,4.59973,2470.133,2020-7-28T04:28:22Z
2020-07-28T02:30:37Z,42.805,6.029,13.2967,4.59973,2470.133,2020-7-28T04:31:25Z
2020-07-28T02:33:40Z,42.805,6.029,13.2971,4.59972,2470.171,2020-7-28T04:34:28Z
2020-07-28T02:36:44Z,42.805,6.029,13.2974,4.59973,2470.171,2020-7-28T04:37:31Z
2020-07-28T02:39:47Z,42.805,6.029,13.2974,4.59973,2470.156,2020-7-28T04:40:34Z
2020-07-28T02:42:50Z,42.805,6.029,13.2969,4.59974,2470.133,2020-7-28T04:43:38Z
2020-07-28T02:45:53Z,42.805,6.029,13.2971,4.59973,2470.156,2020-7-28T04:46:41Z
2020-07-28T02:48:56Z,42.805,6.029,13.2972,4.59972,2470.143,2020-7-28T04:49:44Z
2020-07-28T02:52:00Z,42.805,6.029,13.2970,4.59972,2470.147,2020-7-28T04:52:47Z
2020-07-28T02:55:03Z,42.805,6.029,13.2974,4.59974,2470.133,2020-7-28T04:55:51Z
2020-07-28T02:58:06Z,42.805,6.029,13.2972,4.59976,2470.147,2020-7-28T04:58:54Z
2020-07-28T03:01:09Z,42.805,6.029,13.2969,4.59973,2470.133,2020-7-28T05:01:57Z
2020-07-28T03:04:13Z,42.805,6.029,13.2974,4.59973,2470.171,2020-7-28T05:05:00Z
2020-07-28T03:07:16Z,42.805,6.029,13.2973,4.59972,2470.133,2020-7-28T05:08:04Z
2020-07-28T03:10:19Z,42.805,6.029,13.2971,4.59973,2470.171,2020-7-28T05:11:07Z
2020-07-28T03:13:22Z,42.805,6.029,13.2971,4.59976,2470.124,2020-7-28T05:14:10Z
2020-07-28T03:16:26Z,42.805,6.029,13.2971,4.59973,2470.156,2020-7-28T05:17:13Z
2020-07-28T03:19:29Z,42.805,6.029,13.2974,4.59973,2470.11,2020-7-28T05:20:17Z
2020-07-28T03:22:32Z,42.805,6.029,13.2972,4.59974,2470.147,2020-7-28T05:23:20Z
2020-07-28T03:25:35Z,42.805,6.029,13.2969,4.59973,2470.147,2020-7-28T05:26:23Z
2020-07-28T03:28:38Z,42.805,6.029,13.2973,4.59972,2470.156,2020-7-28T05:29:26Z
2020-07-28T03:31:42Z,42.805,6.029,13.2972,4.59972,2470.133,2020-7-28T05:32:29Z
2020-07-28T03:34:45Z,42.805,6.029,13.2974,4.59973,2470.171,2020-7-28T05:35:33Z
2020-07-28T03:37:48Z,42.805,6.029,13.2973,4.59973,2470.11,2020-7-28T05:38:36Z
2020-07-28T03:40:51Z,42.805,6.029,13.2968,4.59972,2470.171,2020-7-28T05:41:39Z
2020-07-28T03:43:55Z,42.805,6.029,13.2972,4.59973,2470.1,2020-7-28T05:44:42Z
2020-07-28T03:46:58Z,42.805,6.029,13.2968,4.59972,2470.133,2020-7-28T05:47:46Z
2020-07-28T03:50:01Z,42.805,6.029,13.2972,4.59971,2470.11,2020-7-28T05:50:49Z
2020-07-28T03:53:04Z,42.805,6.029,13.2976,4.59972,2470.133,2020-7-28T05:53:52Z
2020-07-28T03:56:07Z,42.805,6.029,13.2974,4.59973,2470.147,2020-7-28T05:56:55Z
2020-07-28T03:59:11Z,42.805,6.029,13.2970,4.59973,2470.133,2020-7-28T05:59:58Z
2020-07-28T04:02:14Z,42.805,6.029,13.2971,4.59974,2470.171,2020-7-28T06:03:02Z
2020-07-28T04:05:17Z,42.805,6.029,13.2968,4.59972,2470.087,2020-7-28T06:06:05Z
2020-07-28T04:08:20Z,42.805,6.029,13.2969,4.59972,2470.133,2020-7-28T06:09:08Z
2020-07-28T04:11:24Z,42.805,6.029,13.2974,4.59973,2470.087,2020-7-28T06:12:11Z
2020-07-28T04:14:27Z,42.805,6.029,13.2970,4.59972,2470.11,2020-7-28T06:15:15Z
2020-07-28T04:17:30Z,42.805,6.029,13.2970,4.59973,2470.11,2020-7-28T06:18:18Z
2020-07-28T04:20:34Z,42.805,6.029,13.2970,4.59974,2470.11,2020-7-28T06:21:21Z
2020-07-28T04:23:37Z,42.805,6.029,13.2973,4.59973,2470.124,2020-7-28T06:24:25Z
2020-07-28T04:26:40Z,42.805,6.029,13.2972,4.59973,2470.11,2020-7-28T06:27:28Z
2020-07-28T04:29:43Z,42.805,6.029,13.2972,4.59973,2470.11,2020-7-28T06:30:31Z
2020-07-28T04:32:47Z,42.805,6.029,13.2974,4.59973,2470.11,2020-7-28T06:33:34Z
2020-07-28T04:35:50Z,42.805,6.029,13.2973,4.59972,2470.133,2020-7-28T06:36:37Z
2020-07-28T04:38:53Z,42.805,6.029,13.2974,4.59974,2470.11,2020-7-28T06:39:41Z
2020-07-28T04:41:56Z,42.805,6.029,13.2971,4.59973,2470.124,2020-7-28T06:42:44Z
2020-07-28T04:44:59Z,42.805,6.029,13.2967,4.59972,2470.087,2020-7-28T06:45:47Z
2020-07-28T04:48:02Z,42.805,6.029,13.2973,4.59972,2470.124,2020-7-28T06:48:50Z
2020-07-28T04:51:06Z,42.805,6.029,13.2967,4.59971,2470.11,2020-7-28T06:51:53Z
2020-07-28T04:54:09Z,42.805,6.029,13.2971,4.59973,2470.124,2020-7-28T06:54:57Z
2020-07-28T04:57:12Z,42.805,6.029,13.2969,4.59973,2470.11,2020-7-28T06:58:00Z
2020-07-28T05:00:15Z,42.805,6.029,13.2968,4.59971,2470.133,2020-7-28T07:01:03Z
2020-07-28T05:03:19Z,42.805,6.029,13.2970,4.59972,2470.087,2020-7-28T07:04:06Z
2020-07-28T05:06:22Z,42.805,6.029,13.2972,4.59973,2470.087,2020-7-28T07:07:10Z
2020-07-28T05:09:25Z,42.805,6.029,13.2969,4.59971,2470.1,2020-7-28T07:10:13Z
2020-07-28T05:12:28Z,42.805,6.029,13.2971,4.59972,2470.077,2020-7-28T07:13:16Z
2020-07-28T05:15:32Z,42.805,6.029,13.2971,4.59971,2470.087,2020-7-28T07:16:19Z
2020-07-28T05:18:35Z,42.805,6.029,13.2970,4.59973,2470.087,2020-7-28T07:19:23Z
2020-07-28T05:21:38Z,42.805,6.029,13.2974,4.59972,2470.087,2020-7-28T07:22:26Z
2020-07-28T05:24:41Z,42.805,6.029,13.2971,4.59972,2470.11,2020-7-28T07:25:29Z
2020-07-28T05:27:45Z,42.805,6.029,13.2969,4.59972,2470.087,2020-7-28T07:28:32Z
2020-07-28T05:30:48Z,42.805,6.029,13.2968,4.59971,2470.063,2020-7-28T07:31:36Z
2020-07-28T05:33:51Z,42.805,6.029,13.2969,4.59975,2470.087,2020-7-28T07:34:39Z
2020-07-28T05:36:54Z,42.805,6.029,13.2974,4.59971,2470.1,2020-7-28T07:37:42Z
2020-07-28T05:39:58Z,42.805,6.029,13.2969,4.59971,2470.073,2020-7-28T07:40:45Z
2020-07-28T05:43:01Z,42.805,6.029,13.2969,4.59973,2470.063,2020-7-28T07:43:49Z
2020-07-28T05:46:04Z,42.805,6.029,13.2970,4.59971,2470.063,2020-7-28T07:46:52Z
2020-07-28T05:49:08Z,42.805,6.029,13.2971,4.59971,2470.087,2020-7-28T07:49:55Z
2020-07-28T05:52:11Z,42.805,6.029,13.2973,4.59971,2470.11,2020-7-28T07:52:59Z
2020-07-28T05:55:14Z,42.805,6.029,13.2971,4.59971,2470.087,2020-7-28T07:56:02Z
2020-07-28T05:58:17Z,42.805,6.029,13.2969,4.59971,2470.063,2020-7-28T07:59:05Z
2020-07-28T06:01:21Z,42.805,6.029,13.2972,4.59973,2470.087,2020-7-28T08:02:08Z
2020-07-28T06:04:24Z,42.805,6.029,13.2969,4.59971,2470.063,2020-7-28T08:05:12Z
2020-07-28T06:07:27Z,42.805,6.029,13.2972,4.59971,2470.04,2020-7-28T08:08:15Z
2020-07-28T06:10:30Z,42.805,6.029,13.2973,4.59972,2470.04,2020-7-28T08:11:18Z
2020-07-28T06:13:33Z,42.805,6.029,13.2971,4.59972,2470.087,2020-7-28T08:14:21Z
2020-07-28T06:16:37Z,42.805,6.029,13.2971,4.59970,2470.087,2020-7-28T08:17:24Z
2020-07-28T06:19:40Z,42.805,6.029,13.2969,4.59971,2470.073,2020-7-28T08:20:28Z
2020-07-28T06:22:43Z,42.805,6.029,13.2969,4.59972,2470.063,2020-7-28T08:23:31Z
2020-07-28T06:25:46Z,42.805,6.029,13.2971,4.59972,2470.053,2020-7-28T08:26:34Z
2020-07-28T06:28:50Z,42.805,6.029,13.2972,4.59973,2470.049,2020-7-28T08:29:37Z
2020-07-28T06:31:53Z,42.805,6.029,13.2971,4.59972,2470.077,2020-7-28T08:32:41Z
2020-07-28T06:34:56Z,42.805,6.029,13.2971,4.59972,2470.063,2020-7-28T08:35:44Z
2020-07-28T06:37:59Z,42.805,6.029,13.2974,4.59972,2470.04,2020-7-28T08:38:47Z
2020-07-28T06:41:02Z,42.805,6.029,13.2971,4.59971,2470.053,2020-7-28T08:41:50Z
2020-07-28T06:44:06Z,42.805,6.029,13.2971,4.59972,2470.063,2020-7-28T08:44:53Z
2020-07-28T06:47:09Z,42.805,6.029,13.2973,4.59972,2470.063,2020-7-28T08:47:57Z
2020-07-28T06:50:12Z,42.805,6.029,13.2972,4.59972,2470.063,2020-7-28T08:51:00Z
2020-07-28T06:53:15Z,42.805,6.029,13.2969,4.59973,2470.063,2020-7-28T08:54:03Z
2020-07-28T06:56:19Z,42.805,6.029,13.2974,4.59972,2470.063,2020-7-28T08:57:06Z
2020-07-28T06:59:22Z,42.805,6.029,13.2971,4.59973,2470.053,2020-7-28T09:00:10Z
2020-07-28T07:02:25Z,42.805,6.029,13.2967,4.59978,2470.053,2020-7-28T09:03:13Z
2020-07-28T07:05:28Z,42.805,6.029,13.2971,4.59972,2470.04,2020-7-28T09:06:16Z
2020-07-28T07:08:32Z,42.805,6.029,13.2972,4.59972,2470.04,2020-7-28T09:09:19Z
2020-07-28T07:11:35Z,42.805,6.029,13.2968,4.59972,2470.04,2020-7-28T09:12:23Z
2020-07-28T07:14:38Z,42.805,6.029,13.2972,4.59972,2470.063,2020-7-28T09:15:26Z
2020-07-28T07:17:41Z,42.805,6.029,13.2975,4.59971,2470.077,2020-7-28T09:18:29Z
2020-07-28T07:20:44Z,42.805,6.029,13.2968,4.59972,2470.063,2020-7-28T09:21:32Z
2020-07-28T07:23:48Z,42.805,6.029,13.2969,4.59972,2470.053,2020-7-28T09:24:35Z
2020-07-28T07:26:51Z,42.805,6.029,13.2971,4.59972,2470.017,2020-7-28T09:27:39Z
2020-07-28T07:29:54Z,42.805,6.029,13.2970,4.59973,2470.03,2020-7-28T09:30:42Z
2020-07-28T07:32:57Z,42.805,6.029,13.2972,4.59972,2470.03,2020-7-28T09:33:45Z
2020-07-28T07:36:01Z,42.805,6.029,13.2970,4.59972,2470.053,2020-7-28T09:36:48Z
2020-07-28T07:39:04Z,42.805,6.029,13.2971,4.59973,2470.017,2020-7-28T09:39:52Z
2020-07-28T07:42:07Z,42.805,6.029,13.2973,4.59971,2470.007,2020-7-28T09:42:55Z
2020-07-28T07:45:11Z,42.805,6.029,13.2973,4.59971,2470.053,2020-7-28T09:45:58Z
2020-07-28T07:48:14Z,42.805,6.029,13.2970,4.59972,2470.04,2020-7-28T09:49:02Z
2020-07-28T07:51:17Z,42.805,6.029,13.2968,4.59972,2470.017,2020-7-28T09:52:05Z
2020-07-28T07:54:20Z,42.805,6.029,13.2971,4.59971,2470.03,2020-7-28T09:55:08Z
2020-07-28T07:57:23Z,42.805,6.029,13.2967,4.59971,2470.04,2020-7-28T09:58:11Z
2020-07-28T08:00:27Z,42.805,6.029,13.2971,4.59972,2470.04,2020-7-28T10:01:14Z
2020-07-28T08:03:30Z,42.805,6.029,13.2970,4.59974,2470.017,2020-7-28T10:04:18Z
2020-07-28T08:06:33Z,42.805,6.029,13.2974,4.59973,2470.03,2020-7-28T10:07:21Z
2020-07-28T08:09:37Z,42.805,6.029,13.2971,4.59972,2470.04,2020-7-28T10:10:24Z
2020-07-28T08:12:40Z,42.805,6.029,13.2971,4.59973,2470.053,2020-7-28T10:13:28Z
2020-07-28T08:15:43Z,42.805,6.029,13.2968,4.59972,2470.04,2020-7-28T10:16:31Z
2020-07-28T08:18:46Z,42.805,6.029,13.2971,4.59973,2470.03,2020-7-28T10:19:34Z
2020-07-28T08:21:49Z,42.805,6.029,13.2971,4.59971,2470.03,2020-7-28T10:22:37Z
2020-07-28T08:24:53Z,42.805,6.029,13.2974,4.59972,2470.053,2020-7-28T10:25:40Z
2020-07-28T08:27:56Z,42.805,6.029,13.2967,4.59971,2470.03,2020-7-28T10:28:44Z
2020-07-28T08:30:59Z,42.805,6.029,13.2969,4.59973,2470.017,2020-7-28T10:31:47Z
2020-07-28T08:34:03Z,42.805,6.029,13.2970,4.59972,2470.04,2020-7-28T10:34:50Z
2020-07-28T08:37:06Z,42.805,6.029,13.2969,4.59973,2470.077,2020-7-28T10:37:54Z
2020-07-28T08:40:09Z,42.805,6.029,13.2974,4.59975,2470.017,2020-7-28T10:40:57Z
2020-07-28T08:43:12Z,42.805,6.029,13.2974,4.59975,2470.053,2020-7-28T10:44:00Z
2020-07-28T08:46:16Z,42.805,6.029,13.2974,4.59973,2470.03,2020-7-28T10:47:03Z
2020-07-28T08:49:19Z,42.805,6.029,13.2973,4.59972,2470.04,2020-7-28T10:50:07Z
2020-07-28T08:52:22Z,42.805,6.029,13.2974,4.59971,2470.017,2020-7-28T10:53:10Z
2020-07-28T08:55:26Z,42.805,6.029,13.2975,4.59972,2470.04,2020-7-28T10:56:13Z
2020-07-28T08:58:29Z,42.805,6.029,13.2968,4.59972,2470.04,2020-7-28T10:59:17Z
2020-07-28T09:01:32Z,42.805,6.029,13.2969,4.59973,2470.04,2020-7-28T11:02:20Z
2020-07-28T09:04:35Z,42.805,6.029,13.2968,4.59973,2470.03,2020-7-28T11:05:23Z
2020-07-28T09:07:39Z,42.805,6.029,13.2967,4.59973,2470.017,2020-7-28T11:08:26Z
2020-07-28T09:10:42Z,42.805,6.029,13.2971,4.59972,2470.04,2020-7-28T11:11:29Z
2020-07-28T09:13:45Z,42.805,6.029,13.2975,4.59973,2470.03,2020-7-28T11:14:33Z
2020-07-28T09:16:48Z,42.805,6.029,13.2973,4.59976,2470.03,2020-7-28T11:17:36Z
2020-07-28T09:19:52Z,42.805,6.029,13.2974,4.59973,2470.03,2020-7-28T11:20:39Z
2020-07-28T09:22:55Z,42.805,6.029,13.2971,4.59976,2470.017,2020-7-28T11:23:43Z
2020-07-28T09:25:58Z,42.805,6.029,13.2971,4.59973,2470.04,2020-7-28T11:26:46Z
2020-07-28T09:29:01Z,42.805,6.029,13.2975,4.59972,2470.063,2020-7-28T11:29:49Z
2020-07-28T09:32:04Z,42.805,6.029,13.2971,4.59974,2470.03,2020-7-28T11:32:52Z
2020-07-28T09:35:08Z,42.805,6.029,13.2972,4.59973,2470.063,2020-7-28T11:35:55Z
2020-07-28T09:38:11Z,42.805,6.029,13.2969,4.59973,2470.053,2020-7-28T11:38:59Z
2020-07-28T09:41:14Z,42.805,6.029,13.2971,4.59973,2470.049,2020-7-28T11:42:02Z
2020-07-28T09:44:17Z,42.805,6.029,13.2971,4.59973,2470.053,2020-7-28T11:45:05Z
2020-07-28T09:47:21Z,42.805,6.029,13.2974,4.59973,2470.063,2020-7-28T11:48:08Z
2020-07-28T09:50:24Z,42.805,6.029,13.2971,4.59973,2470.063,2020-7-28T11:51:12Z
2020-07-28T09:53:27Z,42.805,6.029,13.2969,4.59973,2470.026,2020-7-28T11:54:15Z
2020-07-28T09:56:31Z,42.805,6.029,13.2973,4.59973,2470.087,2020-7-28T11:57:18Z
2020-07-28T09:59:34Z,42.805,6.029,13.2974,4.59973,2470.063,2020-7-28T12:00:22Z
2020-07-28T10:02:37Z,42.805,6.029,13.2971,4.59975,2470.017,2020-7-28T12:03:25Z
2020-07-28T10:05:40Z,42.805,6.029,13.2967,4.59973,2470.063,2020-7-28T12:06:28Z
2020-07-28T10:08:44Z,42.805,6.029,13.2969,4.59972,2470.063,2020-7-28T12:09:31Z
2020-07-28T10:11:47Z,42.805,6.029,13.2973,4.59973,2470.063,2020-7-28T12:12:35Z
2020-07-28T10:14:50Z,42.805,6.029,13.2969,4.59974,2470.1,2020-7-28T12:15:38Z
2020-07-28T10:17:53Z,42.805,6.029,13.2971,4.59973,2470.053,2020-7-28T12:18:41Z
2020-07-28T10:20:57Z,42.805,6.029,13.2974,4.59972,2470.063,2020-7-28T12:21:44Z
2020-07-28T10:24:00Z,42.805,6.029,13.2973,4.59973,2470.11,2020-7-28T12:24:48Z
2020-07-28T10:27:03Z,42.805,6.029,13.2973,4.59973,2470.077,2020-7-28T12:27:51Z
2020-07-28T10:30:06Z,42.805,6.029,13.2968,4.59973,2470.04,2020-7-28T12:30:54Z
2020-07-28T10:33:09Z,42.805,6.029,13.2968,4.59972,2470.087,2020-7-28T12:33:57Z
2020-07-28T10:36:13Z,42.805,6.029,13.2973,4.59973,2470.063,2020-7-28T12:37:01Z
2020-07-28T10:39:16Z,42.805,6.029,13.2969,4.59974,2470.087,2020-7-28T12:40:04Z
2020-07-28T10:42:19Z,42.805,6.029,13.2970,4.59973,2470.11,2020-7-28T12:43:07Z
2020-07-28T10:45:22Z,42.805,6.029,13.2971,4.59973,2470.133,2020-7-28T12:46:10Z
2020-07-28T10:48:26Z,42.805,6.029,13.2972,4.59972,2470.11,2020-7-28T12:49:13Z
2020-07-28T10:51:29Z,42.805,6.029,13.2969,4.59972,2470.087,2020-7-28T12:52:17Z
2020-07-28T10:54:32Z,42.805,6.029,13.2970,4.59973,2470.087,2020-7-28T12:55:20Z
2020-07-28T10:57:36Z,42.805,6.029,13.2973,4.59973,2470.077,2020-7-28T12:58:23Z
2020-07-28T11:00:39Z,42.805,6.029,13.2968,4.59973,2470.087,2020-7-28T13:01:27Z
2020-07-28T11:03:42Z,42.805,6.029,13.2971,4.59973,2470.11,2020-7-28T13:04:30Z
2020-07-28T11:06:45Z,42.805,6.029,13.2975,4.59976,2470.087,2020-7-28T13:07:33Z
2020-07-28T11:09:49Z,42.805,6.029,13.2969,4.59974,2470.1,2020-7-28T13:10:36Z
2020-07-28T11:12:52Z,42.805,6.029,13.2972,4.59973,2470.147,2020-7-28T13:13:40Z
2020-07-28T11:15:55Z,42.805,6.029,13.2971,4.59972,2470.11,2020-7-28T13:16:43Z
2020-07-28T11:18:58Z,42.805,6.029,13.2969,4.59973,2470.1,2020-7-28T13:19:46Z
2020-07-28T11:22:02Z,42.805,6.029,13.2974,4.59973,2470.11,2020-7-28T13:22:49Z
2020-07-28T11:25:05Z,42.805,6.029,13.2970,4.59973,2470.11,2020-7-28T13:25:53Z
2020-07-28T11:28:08Z,42.805,6.029,13.2970,4.59973,2470.1,2020-7-28T13:28:56Z
2020-07-28T11:31:12Z,42.805,6.029,13.2971,4.59975,2470.156,2020-7-28T13:32:00Z
2020-07-28T11:34:15Z,42.805,6.029,13.2974,4.59973,2470.1,2020-7-28T13:35:03Z
2020-07-28T11:37:18Z,42.805,6.029,13.2971,4.59973,2470.063,2020-7-28T13:38:06Z
2020-07-28T11:40:21Z,42.805,6.029,13.2968,4.59973,2470.147,2020-7-28T13:41:09Z
2020-07-28T11:43:25Z,42.805,6.029,13.2969,4.59973,2470.11,2020-7-28T13:44:13Z
2020-07-28T11:46:28Z,42.805,6.029,13.2971,4.59975,2470.11,2020-7-28T13:47:16Z
2020-07-28T11:49:32Z,42.805,6.029,13.2971,4.59976,2470.147,2020-7-28T13:50:19Z
2020-07-28T11:52:35Z,42.805,6.029,13.2971,4.59973,2470.124,2020-7-28T13:53:23Z
2020-07-28T11:55:38Z,42.805,6.029,13.2973,4.59973,2470.1,2020-7-28T13:56:26Z
2020-07-28T11:58:41Z,42.805,6.029,13.2970,4.59973,2470.133,2020-7-28T13:59:29Z
2020-07-28T12:01:45Z,42.805,6.029,13.2972,4.59973,2470.1,2020-7-28T14:02:32Z
2020-07-28T12:04:48Z,42.805,6.029,13.2970,4.59973,2470.087,2020-7-28T14:05:36Z
2020-07-28T12:07:51Z,42.805,6.029,13.2971,4.59973,2470.124,2020-7-28T14:08:39Z
2020-07-28T12:10:54Z,42.805,6.029,13.2973,4.59973,2470.087,2020-7-28T14:11:42Z
2020-07-28T12:13:58Z,42.805,6.029,13.2973,4.59973,2470.11,2020-7-28T14:14:45Z
2020-07-28T12:17:01Z,42.805,6.029,13.2974,4.59973,2470.147,2020-7-28T14:17:49Z
2020-07-28T12:20:04Z,42.805,6.029,13.2970,4.59974,2470.133,2020-7-28T14:20:52Z
2020-07-28T12:23:07Z,42.805,6.029,13.2974,4.59971,2470.133,2020-7-28T14:23:55Z
2020-07-28T12:26:10Z,42.805,6.029,13.2969,4.59973,2470.147,2020-7-28T14:26:58Z
2020-07-28T12:29:14Z,42.805,6.029,13.2973,4.59975,2470.147,2020-7-28T14:30:01Z
2020-07-28T12:32:17Z,42.805,6.029,13.2972,4.59973,2470.133,2020-7-28T14:33:05Z
2020-07-28T12:35:20Z,42.805,6.029,13.2971,4.59973,2470.124,2020-7-28T14:36:08Z
2020-07-28T12:38:23Z,42.805,6.029,13.2972,4.59973,2470.133,2020-7-28T14:39:11Z
2020-07-28T12:41:27Z,42.805,6.029,13.2969,4.59974,2470.133,2020-7-28T14:42:14Z
2020-07-28T12:44:30Z,42.805,6.029,13.2972,4.59973,2470.147,2020-7-28T14:45:18Z
2020-07-28T12:47:33Z,42.805,6.029,13.2970,4.59973,2470.171,2020-7-28T14:48:21Z
2020-07-28T12:50:36Z,42.805,6.029,13.2973,4.59973,2470.147,2020-7-28T14:51:24Z
2020-07-28T12:53:40Z,42.805,6.029,13.2971,4.59973,2470.133,2020-7-28T14:54:27Z
2020-07-28T12:56:43Z,42.805,6.029,13.2974,4.59976,2470.147,2020-7-28T14:57:31Z
2020-07-28T12:59:46Z,42.805,6.029,13.2971,4.59975,2470.156,2020-7-28T15:00:34Z
2020-07-28T13:02:49Z,42.805,6.029,13.2972,4.59973,2470.156,2020-7-28T15:03:37Z
2020-07-28T13:05:52Z,42.805,6.029,13.2970,4.59973,2470.156,2020-7-28T15:06:40Z
2020-07-28T13:08:56Z,42.805,6.029,13.2970,4.59976,2470.171,2020-7-28T15:09:43Z
2020-07-28T13:11:59Z,42.805,6.029,13.2971,4.59973,2470.11,2020-7-28T15:12:47Z
2020-07-28T13:15:02Z,42.805,6.029,13.2968,4.59973,2470.133,2020-7-28T15:15:50Z
2020-07-28T13:18:05Z,42.805,6.029,13.2971,4.59974,2470.147,2020-7-28T15:18:53Z
2020-07-28T13:21:08Z,42.805,6.029,13.2969,4.59972,2470.156,2020-7-28T15:21:56Z
2020-07-28T13:24:12Z,42.805,6.029,13.2971,4.59973,2470.171,2020-7-28T15:25:00Z
2020-07-28T13:27:15Z,42.805,6.029,13.2970,4.59974,2470.147,2020-7-28T15:28:03Z
2020-07-28T13:30:18Z,42.805,6.029,13.2969,4.59975,2470.124,2020-7-28T15:31:06Z
2020-07-28T13:33:21Z,42.805,6.029,13.2971,4.59973,2470.133,2020-7-28T15:34:09Z
2020-07-28T13:36:25Z,42.805,6.029,13.2970,4.59981,2470.133,2020-7-28T15:37:12Z
2020-07-28T13:39:28Z,42.805,6.029,13.2970,4.59973,2470.11,2020-7-28T15:40:16Z
2020-07-28T13:42:31Z,42.805,6.029,13.2972,4.59974,2470.133,2020-7-28T15:43:19Z
2020-07-28T13:45:34Z,42.805,6.029,13.2972,4.59974,2470.133,2020-7-28T15:46:22Z
2020-07-28T13:48:38Z,42.805,6.029,13.2974,4.59975,2470.11,2020-7-28T15:49:25Z
2020-07-28T13:51:41Z,42.805,6.029,13.2970,4.59974,2470.171,2020-7-28T15:52:29Z
2020-07-28T13:54:44Z,42.805,6.029,13.2972,4.59974,2470.171,2020-7-28T15:55:32Z
2020-07-28T13:57:47Z,42.805,6.029,13.2976,4.59973,2470.124,2020-7-28T15:58:35Z
2020-07-28T14:00:51Z,42.805,6.029,13.2973,4.59973,2470.147,2020-7-28T16:01:38Z
2020-07-28T14:03:54Z,42.805,6.029,13.2969,4.59976,2470.133,2020-7-28T16:04:42Z
2020-07-28T14:06:57Z,42.805,6.029,13.2971,4.59972,2470.147,2020-7-28T16:07:45Z
2020-07-28T14:10:00Z,42.805,6.029,13.2972,4.59972,2470.133,2020-7-28T16:10:48Z
2020-07-28T14:13:04Z,42.805,6.029,13.2972,4.59973,2470.133,2020-7-28T16:13:51Z
2020-07-28T14:16:07Z,42.805,6.029,13.2974,4.59973,2470.171,2020-7-28T16:16:55Z
2020-07-28T14:19:10Z,42.805,6.029,13.2970,4.59973,2470.133,2020-7-28T16:19:58Z
2020-07-28T14:22:13Z,42.805,6.029,13.2971,4.59973,2470.147,2020-7-28T16:23:01Z
2020-07-28T14:25:17Z,42.805,6.029,13.2967,4.59973,2470.133,2020-7-28T16:26:04Z
2020-07-28T14:28:20Z,42.805,6.029,13.2969,4.59979,2470.133,2020-7-28T16:29:08Z
2020-07-28T14:31:24Z,42.805,6.029,13.2973,4.59973,2470.147,2020-7-28T16:32:11Z
2020-07-28T14:34:27Z,42.805,6.029,13.2968,4.59972,2470.133,2020-7-28T16:35:15Z
2020-07-28T14:37:30Z,42.805,6.029,13.2973,4.59972,2470.156,2020-7-28T16:38:18Z
2020-07-28T14:40:33Z,42.805,6.029,13.2971,4.59973,2470.156,2020-7-28T16:41:21Z
2020-07-28T14:43:37Z,42.805,6.029,13.2971,4.59974,2470.194,2020-7-28T16:44:24Z
2020-07-28T14:46:40Z,42.805,6.029,13.2971,4.59973,2470.171,2020-7-28T16:47:28Z
2020-07-28T14:49:43Z,42.805,6.029,13.2973,4.59973,2470.147,2020-7-28T16:50:31Z
2020-07-28T14:52:46Z,42.805,6.029,13.2970,4.59973,2470.124,2020-7-28T16:53:34Z
2020-07-28T14:55:50Z,42.805,6.029,13.2966,4.59973,2470.156,2020-7-28T16:56:37Z
2020-07-28T14:58:53Z,42.805,6.029,13.2970,4.59972,2470.147,2020-7-28T16:59:41Z
2020-07-28T15:01:56Z,42.805,6.029,13.2971,4.59972,2470.147,2020-7-28T17:02:44Z
2020-07-28T15:05:00Z,42.805,6.029,13.2973,4.59972,2470.156,2020-7-28T17:05:47Z
2020-07-28T15:08:03Z,42.805,6.029,13.2971,4.59972,2470.156,2020-7-28T17:08:51Z
2020-07-28T15:11:06Z,42.805,6.029,13.2973,4.59973,2470.147,2020-7-28T17:11:54Z
2020-07-28T15:14:09Z,42.805,6.029,13.2969,4.59974,2470.11,2020-7-28T17:14:57Z